,,PressureMeas_1m,,PRMeasQMR101_1,,RHStat155_1m_1,,SRMeasQMS101R_1m,,TAStat155_1m_1,,GenWind_1,,GenWind_1,
2019-10-12, 00:00:07,VALID,917.812,VALID,0.0,VALID,99.295,VALID,0.016,VALID,20.799,VALID,11.0,VALID,0.179,
2019-10-12, 00:01:07,VALID,917.81,VALID,0.0,VALID,99.224,VALID,0.034,VALID,20.77,VALID,9.0,VALID,0.204,
2019-10-12, 00:02:07,VALID,917.794,VALID,0.0,VALID,99.143,VALID,0.005,VALID,20.711,VALID,15.0,VALID,0.394,
2019-10-12, 00:03:07,VALID,917.795,VALID,0.0,VALID,99.197,VALID,0.03,VALID,20.752,VALID,27.0,VALID,0.288,
2019-10-12, 00:04:07,VALID,917.805,VALID,0.0,VALID,99.224,VALID,0.019,VALID,20.783,INVALID,360.0,VALID,0.005,
2019-10-12, 00:05:07,VALID,917.773,VALID,0.0,VALID,99.181,VALID,0.006,VALID,20.779,INVALID,360.0,VALID,0.0,
2019-10-12, 00:06:07,VALID,917.767,VALID,0.0,VALID,99.226,VALID,0.009,VALID,20.816,INVALID,360.0,VALID,0.0,
2019-10-12, 00:07:07,VALID,917.762,VALID,0.0,VALID,99.102,VALID,0.009,VALID,20.768,INVALID,360.0,VALID,0.0,
2019-10-12, 00:08:07,VALID,917.748,VALID,0.0,VALID,99.025,VALID,0.008,VALID,20.749,INVALID,360.0,VALID,0.0,
2019-10-12, 00:09:07,VALID,917.739,VALID,0.0,VALID,98.923,VALID,0.019,VALID,20.723,INVALID,360.0,VALID,0.0,
2019-10-12, 00:10:07,VALID,917.731,VALID,0.0,VALID,99.034,VALID,0.025,VALID,20.803,VALID,44.0,VALID,0.296,
2019-10-12, 00:11:07,VALID,917.72,VALID,0.0,VALID,99.049,VALID,0.01,VALID,20.842,INVALID,360.0,VALID,0.01,
2019-10-12, 00:12:07,VALID,917.708,VALID,0.0,VALID,98.972,VALID,0.012,VALID,20.862,INVALID,360.0,VALID,0.0,
2019-10-12, 00:13:07,VALID,917.711,VALID,0.0,VALID,98.803,VALID,0.016,VALID,20.811,INVALID,360.0,VALID,0.0,
2019-10-12, 00:14:07,VALID,917.708,VALID,0.0,VALID,98.746,VALID,0.012,VALID,20.801,VALID,32.0,VALID,0.35,
2019-10-12, 00:15:07,VALID,917.705,VALID,0.0,VALID,98.779,VALID,0.012,VALID,20.821,VALID,36.0,VALID,0.353,
2019-10-12, 00:16:07,VALID,917.685,VALID,0.0,VALID,98.812,VALID,0.018,VALID,20.85,INVALID,360.0,VALID,0.021,
2019-10-12, 00:17:07,VALID,917.672,VALID,0.0,VALID,98.733,VALID,0.01,VALID,20.855,INVALID,360.0,VALID,0.005,
2019-10-12, 00:18:07,VALID,917.638,VALID,0.0,VALID,98.663,VALID,0.018,VALID,20.853,INVALID,360.0,VALID,0.0,
2019-10-12, 00:19:07,VALID,917.609,VALID,0.0,VALID,98.578,VALID,0.009,VALID,20.842,VALID,62.0,VALID,0.0,
2019-10-12, 00:20:07,VALID,917.594,VALID,0.0,VALID,98.446,VALID,0.02,VALID,20.811,VALID,63.0,VALID,0.0,
2019-10-12, 00:21:07,VALID,917.578,VALID,0.0,VALID,98.349,VALID,-0.01,VALID,20.786,VALID,63.0,VALID,0.0,
2019-10-12, 00:22:07,VALID,917.542,VALID,0.0,VALID,98.371,VALID,-0.031,VALID,20.789,VALID,63.0,VALID,0.0,
2019-10-12, 00:23:07,VALID,917.515,VALID,0.0,VALID,98.473,VALID,-0.028,VALID,20.822,INVALID,360.0,VALID,0.0,
2019-10-12, 00:24:07,VALID,917.495,VALID,0.0,VALID,98.507,VALID,-0.038,VALID,20.83,INVALID,360.0,VALID,0.0,
2019-10-12, 00:25:07,VALID,917.44,VALID,0.0,VALID,98.47,VALID,-0.028,VALID,20.83,INVALID,360.0,VALID,0.0,
2019-10-12, 00:26:07,VALID,917.426,VALID,0.0,VALID,98.447,VALID,-0.016,VALID,20.836,INVALID,360.0,VALID,0.0,
2019-10-12, 00:27:07,VALID,917.394,VALID,0.0,VALID,98.327,VALID,-0.002,VALID,20.799,INVALID,360.0,VALID,0.0,
2019-10-12, 00:28:07,VALID,917.345,VALID,0.0,VALID,98.379,VALID,-0.021,VALID,20.781,INVALID,360.0,VALID,0.0,
2019-10-12, 00:29:07,VALID,917.347,VALID,0.0,VALID,98.456,VALID,-0.027,VALID,20.785,INVALID,360.0,VALID,0.0,
2019-10-12, 00:30:07,VALID,917.328,VALID,0.0,VALID,98.423,VALID,-0.031,VALID,20.77,INVALID,360.0,VALID,0.0,
2019-10-12, 00:31:07,VALID,917.303,VALID,0.0,VALID,98.478,VALID,-0.033,VALID,20.79,INVALID,360.0,VALID,0.0,
2019-10-12, 00:32:07,VALID,917.294,VALID,0.0,VALID,98.43,VALID,-0.013,VALID,20.79,INVALID,360.0,VALID,0.0,
2019-10-12, 00:33:07,VALID,917.287,VALID,0.0,VALID,98.385,VALID,-0.02,VALID,20.77,INVALID,360.0,VALID,0.0,
2019-10-12, 00:34:07,VALID,917.285,VALID,0.0,VALID,98.399,VALID,-0.025,VALID,20.736,INVALID,360.0,VALID,0.0,
2019-10-12, 00:35:07,VALID,917.289,VALID,0.0,VALID,98.388,VALID,-0.027,VALID,20.734,INVALID,360.0,VALID,0.0,
2019-10-12, 00:36:07,VALID,917.306,VALID,0.0,VALID,98.386,VALID,0.0,VALID,20.738,INVALID,360.0,VALID,0.0,
2019-10-12, 00:37:07,VALID,917.306,VALID,0.0,VALID,98.446,VALID,0.025,VALID,20.77,INVALID,360.0,VALID,0.0,
2019-10-12, 00:38:07,VALID,917.302,VALID,0.0,VALID,98.403,VALID,0.029,VALID,20.787,INVALID,360.0,VALID,0.0,
2019-10-12, 00:39:07,VALID,917.278,VALID,0.0,VALID,98.352,VALID,0.003,VALID,20.799,INVALID,360.0,VALID,0.0,
2019-10-12, 00:40:07,VALID,917.278,VALID,0.0,VALID,98.305,VALID,0.024,VALID,20.809,INVALID,360.0,VALID,0.0,
2019-10-12, 00:41:07,VALID,917.28,VALID,0.0,VALID,98.276,VALID,0.026,VALID,20.824,INVALID,360.0,VALID,0.0,
2019-10-12, 00:42:07,VALID,917.306,VALID,0.0,VALID,98.31,VALID,-0.012,VALID,20.847,INVALID,360.0,VALID,0.0,
2019-10-12, 00:43:07,VALID,917.313,VALID,0.0,VALID,98.309,VALID,0.008,VALID,20.862,INVALID,360.0,VALID,0.0,
2019-10-12, 00:44:07,VALID,917.328,VALID,0.0,VALID,98.229,VALID,0.005,VALID,20.851,INVALID,360.0,VALID,0.0,
2019-10-12, 00:45:07,VALID,917.327,VALID,0.0,VALID,98.225,VALID,0.013,VALID,20.864,INVALID,360.0,VALID,0.0,
2019-10-12, 00:46:07,VALID,917.349,VALID,0.0,VALID,98.217,VALID,0.01,VALID,20.868,INVALID,360.0,VALID,0.0,
2019-10-12, 00:47:07,VALID,917.353,VALID,0.0,VALID,98.145,VALID,0.002,VALID,20.84,INVALID,360.0,VALID,0.0,
2019-10-12, 00:48:07,VALID,917.332,VALID,0.0,VALID,98.182,VALID,0.012,VALID,20.832,INVALID,360.0,VALID,0.0,
2019-10-12, 00:49:07,VALID,917.309,VALID,0.0,VALID,98.35,VALID,0.027,VALID,20.869,INVALID,360.0,VALID,0.0,
2019-10-12, 00:50:07,VALID,917.318,VALID,0.0,VALID,98.391,VALID,0.005,VALID,20.878,INVALID,360.0,VALID,0.0,
2019-10-12, 00:51:07,VALID,917.315,VALID,0.0,VALID,98.453,VALID,0.007,VALID,20.903,INVALID,360.0,VALID,0.0,
2019-10-12, 00:52:07,VALID,917.307,VALID,0.0,VALID,98.463,VALID,0.011,VALID,20.926,INVALID,360.0,VALID,0.0,
2019-10-12, 00:53:07,VALID,917.311,VALID,0.0,VALID,98.353,VALID,0.004,VALID,20.917,INVALID,360.0,VALID,0.0,
2019-10-12, 00:54:07,VALID,917.29,VALID,0.0,VALID,98.323,VALID,0.003,VALID,20.926,INVALID,360.0,VALID,0.0,
2019-10-12, 00:55:07,VALID,917.301,VALID,0.0,VALID,98.208,VALID,0.004,VALID,20.919,INVALID,360.0,VALID,0.0,
2019-10-12, 00:56:07,VALID,917.323,VALID,0.0,VALID,98.193,VALID,0.019,VALID,20.948,INVALID,360.0,VALID,0.0,
2019-10-12, 00:57:07,VALID,917.324,VALID,0.0,VALID,98.117,VALID,-0.0,VALID,20.956,INVALID,360.0,VALID,0.0,
2019-10-12, 00:58:07,VALID,917.318,VALID,0.0,VALID,98.067,VALID,0.0,VALID,20.955,INVALID,360.0,VALID,0.0,
2019-10-12, 00:59:07,VALID,917.317,VALID,0.0,VALID,97.905,VALID,0.017,VALID,20.927,INVALID,360.0,VALID,0.0,
2019-10-12, 01:00:07,VALID,917.314,VALID,0.0,VALID,97.748,VALID,0.02,VALID,20.886,INVALID,360.0,VALID,0.0,
2019-10-12, 01:01:07,VALID,917.272,VALID,0.0,VALID,97.679,VALID,0.019,VALID,20.85,INVALID,360.0,VALID,0.0,
2019-10-12, 01:02:07,VALID,917.276,VALID,0.0,VALID,97.8,VALID,0.023,VALID,20.828,INVALID,360.0,VALID,0.0,
2019-10-12, 01:03:07,VALID,917.266,VALID,0.0,VALID,97.93,VALID,0.002,VALID,20.796,INVALID,360.0,VALID,0.0,
2019-10-12, 01:04:07,VALID,917.239,VALID,0.0,VALID,98.251,VALID,0.011,VALID,20.816,INVALID,360.0,VALID,0.0,
2019-10-12, 01:05:07,VALID,917.238,VALID,0.0,VALID,98.268,VALID,0.017,VALID,20.802,INVALID,360.0,VALID,0.0,
2019-10-12, 01:06:07,VALID,917.22,VALID,0.0,VALID,98.273,VALID,0.001,VALID,20.77,INVALID,360.0,VALID,0.0,
2019-10-12, 01:07:07,VALID,917.217,VALID,0.0,VALID,98.357,VALID,-0.019,VALID,20.757,INVALID,360.0,VALID,0.0,
2019-10-12, 01:08:07,VALID,917.189,VALID,0.0,VALID,98.441,VALID,-0.018,VALID,20.771,INVALID,360.0,VALID,0.0,
2019-10-12, 01:09:07,VALID,917.177,VALID,0.0,VALID,98.552,VALID,-0.012,VALID,20.819,INVALID,360.0,VALID,0.0,
2019-10-12, 01:10:07,VALID,917.152,VALID,0.0,VALID,98.608,VALID,-0.015,VALID,20.861,INVALID,360.0,VALID,0.0,
2019-10-12, 01:11:07,VALID,917.134,VALID,0.0,VALID,98.552,VALID,-0.009,VALID,20.864,INVALID,360.0,VALID,0.0,
2019-10-12, 01:12:07,VALID,917.144,VALID,0.0,VALID,98.518,VALID,-0.02,VALID,20.88,INVALID,360.0,VALID,0.0,
2019-10-12, 01:13:07,VALID,917.168,VALID,0.0,VALID,98.495,VALID,-0.007,VALID,20.893,INVALID,360.0,VALID,0.0,
2019-10-12, 01:14:07,VALID,917.195,VALID,0.0,VALID,98.462,VALID,-0.014,VALID,20.915,INVALID,360.0,VALID,0.0,
2019-10-12, 01:15:07,VALID,917.207,VALID,0.0,VALID,98.433,VALID,-0.015,VALID,20.926,INVALID,360.0,VALID,0.0,
2019-10-12, 01:16:07,VALID,917.197,VALID,0.0,VALID,98.304,VALID,-0.013,VALID,20.906,INVALID,360.0,VALID,0.0,
2019-10-12, 01:17:07,VALID,917.194,VALID,0.0,VALID,98.245,VALID,-0.015,VALID,20.913,INVALID,360.0,VALID,0.0,
2019-10-12, 01:18:07,VALID,917.178,VALID,0.0,VALID,98.241,VALID,-0.021,VALID,20.92,INVALID,360.0,VALID,0.0,
2019-10-12, 01:19:07,VALID,917.171,VALID,0.0,VALID,98.165,VALID,-0.007,VALID,20.888,INVALID,360.0,VALID,0.0,
2019-10-12, 01:20:07,VALID,917.158,VALID,0.0,VALID,98.194,VALID,-0.003,VALID,20.87,INVALID,360.0,VALID,0.0,
2019-10-12, 01:21:07,VALID,917.157,VALID,0.0,VALID,98.309,VALID,0.007,VALID,20.889,INVALID,360.0,VALID,0.0,
2019-10-12, 01:22:07,VALID,917.149,VALID,0.0,VALID,98.433,VALID,-0.002,VALID,20.923,INVALID,360.0,VALID,0.0,
2019-10-12, 01:23:07,VALID,917.154,VALID,0.0,VALID,98.408,VALID,-0.009,VALID,20.926,INVALID,360.0,VALID,0.0,
2019-10-12, 01:24:07,VALID,917.154,VALID,0.0,VALID,98.429,VALID,0.012,VALID,20.913,INVALID,360.0,VALID,0.0,
2019-10-12, 01:25:07,VALID,917.151,VALID,0.0,VALID,98.462,VALID,-0.0,VALID,20.913,INVALID,360.0,VALID,0.0,
2019-10-12, 01:26:07,VALID,917.135,VALID,0.0,VALID,98.494,VALID,-0.006,VALID,20.914,INVALID,360.0,VALID,0.0,
2019-10-12, 01:27:07,VALID,917.11,VALID,0.0,VALID,98.5,VALID,-0.011,VALID,20.889,INVALID,360.0,VALID,0.0,
2019-10-12, 01:28:07,VALID,917.123,VALID,0.0,VALID,98.564,VALID,0.001,VALID,20.892,INVALID,360.0,VALID,0.0,
2019-10-12, 01:29:07,VALID,917.103,VALID,0.0,VALID,98.59,VALID,-0.011,VALID,20.88,INVALID,360.0,VALID,0.0,
2019-10-12, 01:30:07,VALID,917.125,VALID,0.0,VALID,98.629,VALID,0.002,VALID,20.873,INVALID,360.0,VALID,0.0,
2019-10-12, 01:31:07,VALID,917.123,VALID,0.0,VALID,98.72,VALID,-0.002,VALID,20.886,INVALID,360.0,VALID,0.0,
2019-10-12, 01:32:07,VALID,917.135,VALID,0.0,VALID,98.673,VALID,0.011,VALID,20.843,INVALID,360.0,VALID,0.0,
2019-10-12, 01:33:07,VALID,917.133,VALID,0.0,VALID,98.706,VALID,-0.006,VALID,20.82,INVALID,360.0,VALID,0.0,
2019-10-12, 01:34:07,VALID,917.146,VALID,0.0,VALID,98.809,VALID,0.004,VALID,20.844,INVALID,360.0,VALID,0.0,
2019-10-12, 01:35:07,VALID,917.132,VALID,0.0,VALID,98.873,VALID,0.012,VALID,20.852,INVALID,360.0,VALID,0.0,
2019-10-12, 01:36:07,VALID,917.114,VALID,0.0,VALID,98.925,VALID,0.02,VALID,20.84,INVALID,360.0,VALID,0.0,
2019-10-12, 01:37:07,VALID,917.111,VALID,0.0,VALID,98.841,VALID,0.023,VALID,20.76,INVALID,360.0,VALID,0.0,
2019-10-12, 01:38:07,VALID,917.088,VALID,0.0,VALID,98.923,VALID,0.03,VALID,20.746,INVALID,360.0,VALID,0.0,
2019-10-12, 01:39:07,VALID,917.075,VALID,0.0,VALID,99.075,VALID,0.006,VALID,20.778,INVALID,360.0,VALID,0.0,
2019-10-12, 01:40:07,VALID,917.066,VALID,0.0,VALID,99.042,VALID,0.021,VALID,20.733,INVALID,360.0,VALID,0.0,
2019-10-12, 01:41:07,VALID,917.055,VALID,0.0,VALID,99.054,VALID,0.016,VALID,20.687,INVALID,360.0,VALID,0.0,
2019-10-12, 01:42:07,VALID,917.006,VALID,0.0,VALID,99.11,VALID,0.021,VALID,20.676,INVALID,360.0,VALID,0.0,
2019-10-12, 01:43:07,VALID,916.977,VALID,0.0,VALID,99.199,VALID,0.016,VALID,20.698,INVALID,360.0,VALID,0.0,
2019-10-12, 01:44:07,VALID,916.96,VALID,0.0,VALID,99.223,VALID,0.01,VALID,20.679,INVALID,360.0,VALID,0.0,
2019-10-12, 01:45:07,VALID,916.951,VALID,0.0,VALID,99.237,VALID,0.009,VALID,20.648,INVALID,360.0,VALID,0.0,
2019-10-12, 01:46:07,VALID,916.914,VALID,0.0,VALID,99.284,VALID,0.019,VALID,20.616,VALID,250.0,VALID,1.061,
2019-10-12, 01:47:06,VALID,916.899,VALID,0.0,VALID,99.353,VALID,0.015,VALID,20.613,VALID,249.0,VALID,0.511,
2019-10-12, 01:48:06,VALID,916.876,VALID,0.0,VALID,99.411,VALID,0.01,VALID,20.61,VALID,175.0,VALID,0.201,
2019-10-12, 01:49:06,VALID,916.864,VALID,0.0,VALID,99.494,VALID,0.02,VALID,20.625,INVALID,360.0,VALID,0.092,
2019-10-12, 01:50:06,VALID,916.872,VALID,0.0,VALID,99.499,VALID,0.006,VALID,20.625,INVALID,360.0,VALID,0.02,
2019-10-12, 01:51:06,VALID,916.856,VALID,0.0,VALID,99.619,VALID,-0.006,VALID,20.703,INVALID,360.0,VALID,0.0,
2019-10-12, 01:52:06,VALID,916.83,VALID,0.0,VALID,99.635,VALID,0.003,VALID,20.729,INVALID,360.0,VALID,0.006,
2019-10-12, 01:53:06,VALID,916.823,VALID,0.0,VALID,99.592,VALID,-0.011,VALID,20.689,INVALID,360.0,VALID,0.0,
2019-10-12, 01:54:06,VALID,916.809,VALID,0.0,VALID,99.651,VALID,-0.031,VALID,20.713,INVALID,360.0,VALID,0.0,
2019-10-12, 01:55:06,VALID,916.813,VALID,0.0,VALID,99.648,VALID,-0.01,VALID,20.675,INVALID,360.0,VALID,0.0,
2019-10-12, 01:56:06,VALID,916.801,VALID,0.0,VALID,99.659,VALID,-0.012,VALID,20.667,INVALID,360.0,VALID,0.0,
2019-10-12, 01:57:06,VALID,916.796,VALID,0.0,VALID,99.655,VALID,-0.017,VALID,20.676,INVALID,360.0,VALID,0.0,
2019-10-12, 01:58:06,VALID,916.792,VALID,0.0,VALID,99.686,VALID,-0.019,VALID,20.712,INVALID,360.0,VALID,0.0,
2019-10-12, 01:59:06,VALID,916.816,VALID,0.0,VALID,99.732,VALID,-0.017,VALID,20.765,INVALID,360.0,VALID,0.0,
2019-10-12, 02:00:06,VALID,916.826,VALID,0.0,VALID,99.772,VALID,-0.0,VALID,20.797,INVALID,360.0,VALID,0.0,
2019-10-12, 02:01:06,VALID,916.827,VALID,0.0,VALID,99.692,VALID,-0.004,VALID,20.743,INVALID,360.0,VALID,0.0,
2019-10-12, 02:02:06,VALID,916.835,VALID,0.0,VALID,99.65,VALID,-0.008,VALID,20.687,INVALID,360.0,VALID,0.0,
2019-10-12, 02:03:06,VALID,916.84,VALID,0.0,VALID,99.648,VALID,-0.004,VALID,20.647,INVALID,360.0,VALID,0.0,
2019-10-12, 02:04:06,VALID,916.842,VALID,0.0,VALID,99.632,VALID,-0.006,VALID,20.639,INVALID,360.0,VALID,0.0,
2019-10-12, 02:05:06,VALID,916.838,VALID,0.0,VALID,99.624,VALID,-0.014,VALID,20.634,INVALID,360.0,VALID,0.0,
2019-10-12, 02:06:06,VALID,916.827,VALID,0.0,VALID,99.637,VALID,0.024,VALID,20.649,INVALID,360.0,VALID,0.0,
2019-10-12, 02:07:06,VALID,916.823,VALID,0.0,VALID,99.652,VALID,0.025,VALID,20.698,INVALID,360.0,VALID,0.0,
2019-10-12, 02:08:06,VALID,916.809,VALID,0.0,VALID,99.659,VALID,0.033,VALID,20.709,INVALID,360.0,VALID,0.0,
2019-10-12, 02:09:06,VALID,916.808,VALID,0.0,VALID,99.712,VALID,0.039,VALID,20.793,INVALID,360.0,VALID,0.0,
2019-10-12, 02:10:06,VALID,916.826,VALID,0.0,VALID,99.691,VALID,0.019,VALID,20.786,INVALID,360.0,VALID,0.0,
2019-10-12, 02:11:06,VALID,916.83,VALID,0.0,VALID,99.611,VALID,0.02,VALID,20.697,INVALID,360.0,VALID,0.0,
2019-10-12, 02:12:06,VALID,916.862,VALID,0.0,VALID,99.559,VALID,0.028,VALID,20.654,INVALID,360.0,VALID,0.0,
2019-10-12, 02:13:06,VALID,916.869,VALID,0.0,VALID,99.636,VALID,0.03,VALID,20.711,INVALID,360.0,VALID,0.0,
2019-10-12, 02:14:06,VALID,916.881,VALID,0.0,VALID,99.616,VALID,0.029,VALID,20.731,INVALID,360.0,VALID,0.0,
2019-10-12, 02:15:06,VALID,916.873,VALID,0.0,VALID,99.604,VALID,0.041,VALID,20.743,INVALID,360.0,VALID,0.0,
2019-10-12, 02:16:06,VALID,916.853,VALID,0.0,VALID,99.587,VALID,0.024,VALID,20.731,VALID,344.0,VALID,0.0,
2019-10-12, 02:17:06,VALID,916.879,VALID,0.0,VALID,99.541,VALID,0.037,VALID,20.69,VALID,344.0,VALID,0.0,
2019-10-12, 02:18:06,VALID,916.883,VALID,0.0,VALID,99.46,VALID,0.032,VALID,20.607,INVALID,360.0,VALID,0.0,
2019-10-12, 02:19:06,VALID,916.897,VALID,0.0,VALID,99.42,VALID,0.04,VALID,20.583,INVALID,360.0,VALID,0.0,
2019-10-12, 02:20:06,VALID,916.91,VALID,0.0,VALID,99.438,VALID,0.031,VALID,20.588,INVALID,360.0,VALID,0.0,
2019-10-12, 02:21:06,VALID,916.902,VALID,0.0,VALID,99.476,VALID,0.016,VALID,20.634,INVALID,360.0,VALID,0.0,
2019-10-12, 02:22:06,VALID,916.895,VALID,0.0,VALID,99.471,VALID,0.027,VALID,20.643,INVALID,360.0,VALID,0.0,
2019-10-12, 02:23:06,VALID,916.887,VALID,0.0,VALID,99.5,VALID,0.006,VALID,20.687,INVALID,360.0,VALID,0.0,
2019-10-12, 02:24:06,VALID,916.864,VALID,0.0,VALID,99.452,VALID,0.013,VALID,20.65,INVALID,360.0,VALID,0.0,
2019-10-12, 02:25:06,VALID,916.846,VALID,0.0,VALID,99.409,VALID,0.005,VALID,20.606,INVALID,360.0,VALID,0.0,
2019-10-12, 02:26:06,VALID,916.842,VALID,0.0,VALID,99.359,VALID,-0.003,VALID,20.568,INVALID,360.0,VALID,0.0,
2019-10-12, 02:27:06,VALID,916.841,VALID,0.0,VALID,99.343,VALID,0.002,VALID,20.568,INVALID,360.0,VALID,0.0,
2019-10-12, 02:28:06,VALID,916.827,VALID,0.0,VALID,99.425,VALID,0.018,VALID,20.621,INVALID,360.0,VALID,0.0,
2019-10-12, 02:29:06,VALID,916.815,VALID,0.0,VALID,99.44,VALID,0.01,VALID,20.65,INVALID,360.0,VALID,0.0,
2019-10-12, 02:30:06,VALID,916.781,VALID,0.0,VALID,99.463,VALID,-0.012,VALID,20.679,INVALID,360.0,VALID,0.0,
2019-10-12, 02:31:06,VALID,916.761,VALID,0.0,VALID,99.431,VALID,0.015,VALID,20.653,INVALID,360.0,VALID,0.0,
2019-10-12, 02:32:06,VALID,916.757,VALID,0.0,VALID,99.414,VALID,0.017,VALID,20.64,INVALID,360.0,VALID,0.0,
2019-10-12, 02:33:06,VALID,916.746,VALID,0.0,VALID,99.373,VALID,0.004,VALID,20.633,INVALID,360.0,VALID,0.0,
2019-10-12, 02:34:06,VALID,916.759,VALID,0.0,VALID,99.352,VALID,-0.003,VALID,20.635,INVALID,360.0,VALID,0.0,
2019-10-12, 02:35:06,VALID,916.772,VALID,0.0,VALID,99.376,VALID,0.005,VALID,20.663,INVALID,360.0,VALID,0.0,
2019-10-12, 02:36:06,VALID,916.796,VALID,0.0,VALID,99.4,VALID,0.007,VALID,20.704,INVALID,360.0,VALID,0.0,
2019-10-12, 02:37:06,VALID,916.805,VALID,0.0,VALID,99.346,VALID,0.009,VALID,20.677,INVALID,360.0,VALID,0.0,
2019-10-12, 02:38:06,VALID,916.795,VALID,0.0,VALID,99.272,VALID,0.003,VALID,20.636,INVALID,360.0,VALID,0.0,
2019-10-12, 02:39:06,VALID,916.796,VALID,0.0,VALID,99.325,VALID,0.009,VALID,20.677,INVALID,360.0,VALID,0.0,
2019-10-12, 02:40:06,VALID,916.785,VALID,0.0,VALID,99.306,VALID,-0.011,VALID,20.686,INVALID,360.0,VALID,0.0,
2019-10-12, 02:41:06,VALID,916.772,VALID,0.0,VALID,99.305,VALID,-0.011,VALID,20.71,INVALID,360.0,VALID,0.0,
2019-10-12, 02:42:06,VALID,916.754,VALID,0.0,VALID,99.294,VALID,-0.009,VALID,20.719,INVALID,360.0,VALID,0.0,
2019-10-12, 02:43:06,VALID,916.755,VALID,0.0,VALID,99.302,VALID,-0.004,VALID,20.739,INVALID,360.0,VALID,0.0,
2019-10-12, 02:44:06,VALID,916.746,VALID,0.0,VALID,99.278,VALID,0.008,VALID,20.756,INVALID,360.0,VALID,0.0,
2019-10-12, 02:45:06,VALID,916.769,VALID,0.0,VALID,99.211,VALID,-0.009,VALID,20.729,INVALID,360.0,VALID,0.0,
2019-10-12, 02:46:06,VALID,916.745,VALID,0.0,VALID,99.221,VALID,-0.018,VALID,20.753,INVALID,360.0,VALID,0.0,
2019-10-12, 02:47:06,VALID,916.753,VALID,0.0,VALID,99.216,VALID,-0.005,VALID,20.783,INVALID,360.0,VALID,0.0,
2019-10-12, 02:48:06,VALID,916.764,VALID,0.0,VALID,99.139,VALID,0.014,VALID,20.756,INVALID,360.0,VALID,0.0,
2019-10-12, 02:49:06,VALID,916.766,VALID,0.0,VALID,99.128,VALID,0.017,VALID,20.746,INVALID,360.0,VALID,0.0,
2019-10-12, 02:50:06,VALID,916.761,VALID,0.0,VALID,99.106,VALID,0.01,VALID,20.744,INVALID,360.0,VALID,0.0,
2019-10-12, 02:51:06,VALID,916.772,VALID,0.0,VALID,99.085,VALID,0.016,VALID,20.738,INVALID,360.0,VALID,0.0,
2019-10-12, 02:52:06,VALID,916.777,VALID,0.0,VALID,99.078,VALID,0.012,VALID,20.746,INVALID,360.0,VALID,0.0,
2019-10-12, 02:53:06,VALID,916.76,VALID,0.0,VALID,99.062,VALID,0.012,VALID,20.734,INVALID,360.0,VALID,0.0,
2019-10-12, 02:54:06,VALID,916.778,VALID,0.0,VALID,99.067,VALID,0.017,VALID,20.713,INVALID,360.0,VALID,0.0,
2019-10-12, 02:55:06,VALID,916.76,VALID,0.0,VALID,99.122,VALID,0.0,VALID,20.738,INVALID,360.0,VALID,0.0,
2019-10-12, 02:56:06,VALID,916.764,VALID,0.0,VALID,99.175,VALID,0.021,VALID,20.766,INVALID,360.0,VALID,0.0,
2019-10-12, 02:57:06,VALID,916.778,VALID,0.0,VALID,99.209,VALID,0.003,VALID,20.792,INVALID,360.0,VALID,0.0,
2019-10-12, 02:58:06,VALID,916.794,VALID,0.0,VALID,99.175,VALID,-0.004,VALID,20.787,INVALID,360.0,VALID,0.0,
2019-10-12, 02:59:06,VALID,916.802,VALID,0.0,VALID,99.149,VALID,0.008,VALID,20.772,INVALID,360.0,VALID,0.0,
2019-10-12, 03:00:06,VALID,916.808,VALID,0.0,VALID,99.146,VALID,0.002,VALID,20.769,INVALID,360.0,VALID,0.0,
2019-10-12, 03:01:06,VALID,916.82,VALID,0.0,VALID,99.115,VALID,0.005,VALID,20.745,INVALID,360.0,VALID,0.0,
2019-10-12, 03:02:06,VALID,916.808,VALID,0.0,VALID,99.136,VALID,0.013,VALID,20.757,INVALID,360.0,VALID,0.0,
2019-10-12, 03:03:06,VALID,916.802,VALID,0.0,VALID,99.132,VALID,0.011,VALID,20.769,INVALID,360.0,VALID,0.0,
2019-10-12, 03:04:06,VALID,916.795,VALID,0.0,VALID,99.137,VALID,0.01,VALID,20.778,INVALID,360.0,VALID,0.0,
2019-10-12, 03:05:06,VALID,916.79,VALID,0.0,VALID,99.133,VALID,0.01,VALID,20.786,INVALID,360.0,VALID,0.0,
2019-10-12, 03:06:06,VALID,916.79,VALID,0.0,VALID,99.092,VALID,0.02,VALID,20.784,INVALID,360.0,VALID,0.0,
2019-10-12, 03:07:06,VALID,916.774,VALID,0.0,VALID,99.079,VALID,0.008,VALID,20.798,INVALID,360.0,VALID,0.0,
2019-10-12, 03:08:06,VALID,916.772,VALID,0.0,VALID,99.071,VALID,0.002,VALID,20.806,INVALID,360.0,VALID,0.0,
2019-10-12, 03:09:06,VALID,916.784,VALID,0.0,VALID,99.027,VALID,0.018,VALID,20.813,INVALID,360.0,VALID,0.0,
2019-10-12, 03:10:06,VALID,916.772,VALID,0.0,VALID,98.972,VALID,0.018,VALID,20.813,INVALID,360.0,VALID,0.0,
2019-10-12, 03:11:06,VALID,916.769,VALID,0.0,VALID,98.915,VALID,0.019,VALID,20.815,INVALID,360.0,VALID,0.0,
2019-10-12, 03:12:06,VALID,916.788,VALID,0.0,VALID,98.846,VALID,0.022,VALID,20.809,INVALID,360.0,VALID,0.0,
2019-10-12, 03:13:06,VALID,916.766,VALID,0.0,VALID,98.717,VALID,0.023,VALID,20.77,INVALID,360.0,VALID,0.0,
2019-10-12, 03:14:06,VALID,916.773,VALID,0.0,VALID,98.631,VALID,0.015,VALID,20.729,INVALID,360.0,VALID,0.0,
2019-10-12, 03:15:06,VALID,916.77,VALID,0.0,VALID,98.647,VALID,0.004,VALID,20.72,INVALID,360.0,VALID,0.0,
2019-10-12, 03:16:06,VALID,916.771,VALID,0.0,VALID,98.711,VALID,0.006,VALID,20.709,INVALID,360.0,VALID,0.0,
2019-10-12, 03:17:06,VALID,916.767,VALID,0.0,VALID,98.793,VALID,0.017,VALID,20.723,INVALID,360.0,VALID,0.0,
2019-10-12, 03:18:06,VALID,916.75,VALID,0.0,VALID,98.82,VALID,0.014,VALID,20.725,INVALID,360.0,VALID,0.0,
2019-10-12, 03:19:06,VALID,916.732,VALID,0.0,VALID,98.841,VALID,0.024,VALID,20.732,INVALID,360.0,VALID,0.0,
2019-10-12, 03:20:06,VALID,916.723,VALID,0.0,VALID,98.793,VALID,0.01,VALID,20.701,INVALID,360.0,VALID,0.0,
2019-10-12, 03:21:06,VALID,916.722,VALID,0.0,VALID,98.809,VALID,-0.015,VALID,20.715,INVALID,360.0,VALID,0.0,
2019-10-12, 03:22:06,VALID,916.72,VALID,0.0,VALID,98.776,VALID,-0.025,VALID,20.707,INVALID,360.0,VALID,0.0,
2019-10-12, 03:23:06,VALID,916.747,VALID,0.0,VALID,98.714,VALID,-0.031,VALID,20.683,INVALID,360.0,VALID,0.0,
2019-10-12, 03:24:06,VALID,916.743,VALID,0.0,VALID,98.809,VALID,-0.021,VALID,20.708,INVALID,360.0,VALID,0.0,
2019-10-12, 03:25:06,VALID,916.774,VALID,0.0,VALID,98.781,VALID,-0.01,VALID,20.69,INVALID,360.0,VALID,0.0,
2019-10-12, 03:26:06,VALID,916.779,VALID,0.0,VALID,98.77,VALID,-0.017,VALID,20.675,INVALID,360.0,VALID,0.0,
2019-10-12, 03:27:06,VALID,916.778,VALID,0.0,VALID,98.782,VALID,-0.016,VALID,20.68,INVALID,360.0,VALID,0.0,
2019-10-12, 03:28:06,VALID,916.788,VALID,0.0,VALID,98.712,VALID,-0.027,VALID,20.64,INVALID,360.0,VALID,0.0,
2019-10-12, 03:29:06,VALID,916.798,VALID,0.0,VALID,98.692,VALID,-0.029,VALID,20.618,INVALID,360.0,VALID,0.482,
2019-10-12, 03:30:06,VALID,916.806,VALID,0.0,VALID,98.842,VALID,-0.028,VALID,20.63,VALID,14.0,VALID,0.673,
2019-10-12, 03:31:06,VALID,916.811,VALID,0.0,VALID,98.874,VALID,-0.024,VALID,20.61,INVALID,360.0,VALID,0.026,
2019-10-12, 03:32:06,VALID,916.815,VALID,0.0,VALID,98.951,VALID,-0.035,VALID,20.618,VALID,6.0,VALID,0.322,
2019-10-12, 03:33:06,VALID,916.813,VALID,0.0,VALID,98.971,VALID,-0.027,VALID,20.603,VALID,10.0,VALID,0.724,
2019-10-12, 03:34:06,VALID,916.809,VALID,0.0,VALID,99.019,VALID,-0.018,VALID,20.596,VALID,328.0,VALID,0.558,
2019-10-12, 03:35:06,VALID,916.808,VALID,0.0,VALID,98.964,VALID,-0.022,VALID,20.541,INVALID,360.0,VALID,0.105,
2019-10-12, 03:36:06,VALID,916.811,VALID,0.0,VALID,98.992,VALID,-0.007,VALID,20.52,VALID,59.0,VALID,0.415,
2019-10-12, 03:37:06,VALID,916.813,VALID,0.0,VALID,99.072,VALID,-0.021,VALID,20.553,INVALID,360.0,VALID,0.151,
2019-10-12, 03:38:06,VALID,916.829,VALID,0.0,VALID,99.087,VALID,-0.032,VALID,20.56,VALID,12.0,VALID,1.052,